Location: Piotrkow Trybunalski
(51.4000°N, 19.6830°E)
Time: 15:46:07
(UTC+01:00)

Vanguard 2 - Visible Passes

Search period start: 29 January 2023 00:00
Search period end: 08 February 2023 00:00
Orbit: 554 x 2930 km, 32.9° (Epoch: 28 January)

Date Brightness Start Highest point End Pass type
(mag) Time Alt. Az. Time Alt. Az. Time Alt. Az.
29 Jan 11.4 01:04:00 16° ESE 01:04:00 16° ESE 01:06:02 10° ESE visible
29 Jan 10.7 03:05:20 32° S 03:05:20 32° S 03:13:53 10° SE visible
29 Jan 11.0 05:06:39 17° WSW 05:10:28 19° SW 05:18:06 10° S visible
30 Jan 11.4 01:19:48 18° SE 01:19:48 18° SE 01:22:36 10° ESE visible
30 Jan 10.7 03:21:07 30° S 03:21:07 30° S 03:29:55 10° SSE visible
30 Jan 11.1 05:22:26 13° WSW 05:26:27 15° SW 05:32:32 10° SSW visible
31 Jan 11.3 01:35:37 19° SE 01:35:37 19° SE 01:39:03 10° SE visible
31 Jan 10.8 03:36:57 27° SSW 03:36:57 27° SSW 03:45:43 10° SSE visible
31 Jan 11.3 05:39:54 10° WSW 05:42:19 11° SW 05:44:36 10° SW visible
01 Feb 11.2 01:51:29 20° SE 01:51:29 20° SE 01:55:22 10° SE visible
01 Feb 10.9 03:52:49 24° SSW 03:52:49 24° SSW 04:01:14 10° SSE visible
01 Feb 11.4 21:26:17 10° SSW 21:26:52 11° SSW 21:26:52 11° SSW visible
02 Feb 11.2 02:07:24 21° SSE 02:07:24 21° SSE 02:11:31 10° SE visible
02 Feb 11.1 04:08:44 20° SSW 04:08:44 20° SSW 04:16:18 10° S visible
02 Feb 11.2 19:39:04 10° SSE 19:41:37 13° SSE 19:41:37 13° SSE visible
02 Feb 11.4 21:42:03 10° SSW 21:42:57 12° SSW 21:42:57 12° SSW visible
03 Feb 11.2 02:23:21 20° SSE 02:23:21 20° SSE 02:27:28 10° SSE visible
03 Feb 11.2 04:24:41 16° SW 04:24:41 16° SW 04:30:40 10° SSW visible
03 Feb 11.0 19:53:29 10° S 19:57:41 17° SSE 19:57:41 17° SSE visible
03 Feb 11.4 21:58:02 10° SW 21:59:01 13° SW 21:59:01 13° SW visible
04 Feb 11.3 02:39:20 18° SSE 02:39:20 18° SSE 02:43:10 10° SSE visible
04 Feb 11.4 04:40:40 12° SW 04:40:40 12° SW 04:43:25 10° SSW visible
04 Feb 10.9 20:08:37 10° SSW 20:13:44 20° SSE 20:13:44 20° SSE visible
04 Feb 11.4 22:14:13 10° SW 22:15:03 12° SW 22:15:03 12° SW visible
05 Feb 11.3 02:55:21 16° S 02:55:21 16° S 02:58:31 10° SSE visible
05 Feb 10.8 20:24:09 10° SSW 20:29:44 23° S 20:29:44 23° S visible
05 Feb 11.4 22:30:32 10° SW 22:31:04 12° SW 22:31:04 12° SW visible
06 Feb 11.4 03:11:25 13° S 03:11:25 13° S 03:13:24 10° S visible
06 Feb 11.0 18:37:47 10° SSE 18:42:45 13° SE 18:44:23 13° SE visible
06 Feb 10.7 20:40:00 10° SSW 20:45:43 25° S 20:45:43 25° S visible
06 Feb 11.5 22:46:57 10° WSW 22:47:03 10° WSW 22:47:03 10° WSW visible
07 Feb 11.6 03:27:28 10° S 03:27:28 10° S 03:27:32 10° S visible
07 Feb 10.8 18:52:05 10° S 18:58:41 17° SE 19:00:19 17° SE visible
07 Feb 10.7 20:56:01 10° SW 21:01:39 27° SSW 21:01:39 27° SSW visible
